Location: Bannatyne
(13.0833°N, 59.5333°W)
Time: 21:58:38
(UTC+00:00)

deb Explorer IX - Pass Details

Date: 25 January 2020
Orbit: 549 x 1099 km, 38.8° (Epoch: 19 February)

Event Time Altitude Azimuth Distance (km) Brightness Sun altitude
Rises 08:03:07 0° 316° (NW) 3,778 - -34.0°
Reaches altitude 10° 08:06:04 10° 322° (NW) 2,760 - -33.3°
Maximum altitude 08:12:26 46° 34° (NE) 1,191 - -31.8°
Exits shadow 08:12:36 46° 39° (NE) 1,189 ? -31.8°
Drops below altitude 10° 08:17:56 10° 107° (ESE) 2,396 ? -30.5°
Sets 08:20:21 0° 114° (ESE) 3,239 ? -29.9°
